Regional Weather Roundup
Issued by NWS Memphis, TN

Home | Current Version | Previous Version | Text Only | Print | Product List | Glossary On
Versions: 1 2 3 4 5 6 7 8 9 10 11 12 13 14 15 16 17 18 19 20 21 22 23 24 25 26 27 28 29 30 31 32 33 34 35 36 37 38 39 40 41 42 43 44 45 46 47 48 49 50
000
ASUS44 KMEG 251710
RWRMEG
MEMPHIS CWA HOURLY WEATHER ROUNDUP
NATIONAL WEATHER SERVICE MEMPHIS TN
1200 PM CDT SAT OCT 25 2014

...WEST TENNESSEE...

CITY           SKY/WX    TMP DP  RH WIND       PRES   REMARKS
MEMPHIS INTL   PTSUNNY   74  61  63 W7        30.10F
NWS MEMPHIS      N/A     75 N/A N/A MISG        N/A
JACKSON        MOSUNNY   76  61  59 NW7       30.08F
LEXINGTON      PTSUNNY   72  59  64 W3        30.07F
SAVANNAH       SUNNY     73  63  68 W5        30.09F
DYERSBURG      SUNNY     75  55  50 W9        30.07F
UNION CITY     SUNNY     72  61  68 VRB5      30.04F
PARIS          SUNNY     72  59  64 VRB6      30.06F
HUNTINGDON     SUNNY     71  60  68 W6        30.06F


...EASTERN ARKANSAS...

CITY           SKY/WX    TMP DP  RH WIND       PRES   REMARKS
JONESBORO      MOSUNNY   75  62  64 W6        30.07F
WEST MEMPHIS   MOSUNNY   77  63  61 VRB6      30.08F
BATESVILLE     SUNNY     81  64  57 W7        30.07F
NEWPORT        SUNNY     81  63  54 VRB3      30.08F
WALNUT RIDGE   SUNNY     77  63  61 W8        30.05F
BLYTHEVILLE    SUNNY     79  63  57 W7        30.07F
SEARCY         SUNNY     79  63  57 W8        30.10F
STUTTGART      SUNNY     79  63  57 W10       30.12S
PINE BLUFF     SUNNY     76  60  57 W8        30.12F
MONTICELLO     SUNNY     76  60  57 W9        30.13F


...NORTH MISSISSIPPI...

CITY           SKY/WX    TMP DP  RH WIND       PRES   REMARKS
TUPELO         SUNNY     76  59  55 W10       30.10F
OXFORD         SUNNY     73  59  60 W9        30.13F
OLIVE BRANCH   PTSUNNY   73  63  68 SW7       30.10F
TUNICA         SUNNY     75  61  60 W7        30.11F
CLARKSDALE     SUNNY     77  61  57 W7        30.12F
CORINTH        SUNNY     77  61  57 W6G12     30.08F
GRENADA          N/A    N/A N/A N/A MISG        N/A
GREENWOOD      SUNNY     74  58  57 SW7       30.14F
COLUMBUS       SUNNY     74  57  56 NW7       30.12F
STARKVILLE     FAIR      73  57  56 NW5       30.13F
GOLDEN TRIANGL SUNNY     75  57  53 NW7       30.13F


...SOUTHEAST MISSOURI...

CITY           SKY/WX    TMP DP  RH WIND       PRES   REMARKS
WEST PLAINS    SUNNY     74  61  63 CALM      30.09F
POPLAR BLUFF   SUNNY     75  60  59 VRB3      30.04F
CAPE GIRARDEAU SUNNY     74  62  66 NW5       30.04F


...NORTHWEST ALABAMA...

CITY           SKY/WX    TMP DP  RH WIND       PRES   REMARKS
MUSCLE SHOALS  SUNNY     73  55  53 VRB3      30.11F


...MIDDLE TENNESSEE...

CITY           SKY/WX    TMP DP  RH WIND       PRES   REMARKS
NASHVILLE      MOSUNNY   74  57  55 W7        30.07F
CLARKSVILLE    SUNNY     73  60  63 W7        30.04F
COLUMBIA       MOSUNNY   75  63  64 VRB3      30.07S


...WESTERN KENTUCKY...

CITY           SKY/WX    TMP DP  RH WIND       PRES   REMARKS
PADUCAH        SUNNY     74  61  63 CALM      30.03F
FORT CAMPBELL  SUNNY     72  62  68 W7        30.04F


...CENTRAL ARKANSAS...

CITY           SKY/WX    TMP DP  RH WIND       PRES   REMARKS
LITTLE ROCK    SUNNY     80  60  50 W8        30.10F


SKY/WX REPORTED AS FAIR MEANS FEW OR NO CLOUDS BELOW
12 THOUSAND FEET.




USA.gov is the U.S. government's official web portal to all federal, state and local government web resources and services.